Total_Precipitation_Accumulation
0.02 0.03 0.05 0.06 0.06 0.08 0.11 0.21 0.26 0.28 0.33 0.37 0.46 0.53 0.84 1.09 1.19 1.33 1.51 1.75 1.91 2.09 2.16 2.35 2.73 2.99 3.15 3.28 3.50 3.77 4.21 4.60 4.73 4.55 4.48 4.46 4.23 3.93 3.55 3.38 3.47 3.52 3.30 3.34
0.04 0.05 0.05 0.06 0.06 0.09 0.13 0.22 0.29 0.33 0.36 0.37 0.53 0.64 0.88 1.33 1.48 1.44 1.50 1.52 1.56 2.00 2.20 2.43 2.76 2.90 2.86 3.04 3.32 3.75 4.22 4.55 4.45 4.57 4.80 4.79 4.60 3.94 3.58 3.44 3.42 3.32 3.16 3.12
0.05 0.05 0.04 0.06 0.08 0.11 0.15 0.19 0.25 0.31 0.43 0.43 0.55 0.97 1.15 1.44 1.58 1.46 1.41 1.42 1.38 1.57 1.87 2.01 2.21 2.37 2.61 3.03 3.49 3.83 4.14 4.27 4.27 4.49 4.66 4.39 4.20 3.73 3.58 3.56 3.43 3.25 3.20 3.17
0.04 0.05 0.04 0.07 0.10 0.11 0.17 0.16 0.18 0.26 0.43 0.59 0.65 1.29 1.58 1.77 1.65 1.38 1.39 1.44 1.54 1.66 1.75 1.87 1.90 2.20 2.59 3.03 3.62 4.03 4.05 4.11 3.96 4.09 4.24 4.10 3.76 3.51 3.40 3.38 3.15 3.02 2.94 2.93
0.07 0.06 0.06 0.07 0.08 0.09 0.14 0.13 0.15 0.24 0.37 0.59 0.73 1.12 1.59 1.69 1.59 1.29 1.20 1.40 1.63 1.61 1.67 1.90 1.85 2.04 2.32 2.74 3.15 3.57 3.92 3.96 3.76 3.70 3.76 3.91 3.74 3.46 3.24 3.14 3.05 2.99 2.95 2.76
0.09 0.09 0.08 0.09 0.09 0.09 0.10 0.13 0.22 0.36 0.58 0.97 0.77 0.87 1.29 1.54 1.43 1.18 1.19 1.32 1.49 1.66 1.67 1.83 2.08 2.14 2.29 2.55 2.90 3.20 3.42 3.38 3.31 3.25 3.29 3.42 3.50 3.46 3.22 3.02 3.05 3.00 2.86 2.70
0.18 0.19 0.16 0.12 0.12 0.11 0.12 0.23 0.63 1.04 1.34 1.18 0.80 0.87 1.22 1.17 1.01 0.92 1.00 1.27 1.52 1.79 1.81 1.85 2.03 2.15 2.25 2.36 2.54 2.69 2.76 2.79 2.75 2.78 2.75 2.75 2.90 2.98 2.87 2.78 2.85 2.85 2.74 2.62
0.27 0.27 0.20 0.17 0.15 0.15 0.16 0.27 0.66 0.92 1.07 1.00 0.93 1.13 1.20 0.96 0.82 0.83 0.91 1.10 1.40 1.58 1.62 1.73 1.81 1.75 1.77 1.83 1.97 2.12 2.20 2.21 2.18 2.25 2.34 2.36 2.57 2.59 2.60 2.73 2.63 2.66 2.60 2.57
0.15 0.17 0.17 0.17 0.18 0.18 0.23 0.29 0.31 0.52 0.65 1.02 1.22 1.32 1.21 0.89 1.00 1.00 1.08 1.14 1.20 1.26 1.32 1.34 1.37 1.42 1.54 1.58 1.65 1.78 1.87 1.87 1.80 1.86 2.03 2.11 2.18 2.31 2.41 2.52 2.42 2.29 2.31 2.20
0.08 0.13 0.17 0.13 0.14 0.17 0.24 0.37 0.50 0.73 0.98 1.16 1.30 1.55 1.72 1.52 1.42 1.29 1.40 1.62 1.37 1.11 1.15 1.19 1.18 1.22 1.25 1.31 1.42 1.58 1.68 1.82 1.81 1.77 1.83 1.82 1.93 2.03 2.20 2.28 2.17 2.18 2.26 2.21
0.08 0.12 0.18 0.20 0.17 0.22 0.36 0.45 0.55 0.69 0.80 1.08 1.43 1.61 1.39 1.53 1.48 1.41 1.39 1.44 1.32 1.01 0.93 1.03 0.99 1.01 1.07 1.14 1.25 1.40 1.68 1.84 1.77 1.62 1.69 1.80 1.78 1.87 1.96 2.01 1.94 2.04 2.14 2.28
0.11 0.13 0.18 0.23 0.22 0.21 0.30 0.44 0.55 0.72 0.80 0.91 1.15 1.40 1.01 1.16 1.14 1.11 1.17 1.04 0.96 0.90 0.74 0.86 0.91 0.86 0.91 0.96 1.07 1.25 1.48 1.64 1.66 1.61 1.64 1.77 1.83 1.81 1.77 1.74 1.77 1.83 1.87 1.94
0.13 0.18 0.31 0.51 0.47 0.31 0.28 0.30 0.37 0.47 0.62 0.71 1.02 1.32 0.93 0.92 1.03 1.04 1.00 0.99 0.84 0.89 0.82 0.79 0.89 0.93 0.89 0.87 0.99 1.18 1.25 1.45 1.65 1.65 1.65 1.75 1.70 1.66 1.71 1.84 1.90 1.88 1.89 1.91
0.15 0.17 0.28 0.54 0.59 0.46 0.35 0.34 0.36 0.40 0.56 0.59 0.68 1.01 1.02 1.02 1.05 1.12 1.06 0.90 0.75 0.77 0.85 0.81 0.81 0.81 0.74 0.75 0.85 1.05 1.15 1.29 1.46 1.60 1.70 1.81 1.79 1.80 1.90 2.01 2.09 2.03 1.95 1.97
0.14 0.15 0.19 0.27 0.34 0.35 0.32 0.32 0.34 0.37 0.42 0.55 0.63 0.81 0.96 0.95 1.00 1.15 1.04 0.89 0.84 0.74 0.75 0.78 0.74 0.66 0.64 0.66 0.76 0.95 1.11 1.25 1.38 1.62 1.77 1.87 1.92 1.92 1.95 1.96 2.04 2.04 1.94 1.90
0.20 0.21 0.25 0.34 0.36 0.39 0.36 0.36 0.32 0.31 0.29 0.34 0.53 0.78 0.78 0.76 0.82 0.98 0.99 1.04 1.02 0.91 0.75 0.69 0.70 0.71 0.71 0.66 0.68 0.75 0.92 1.11 1.28 1.50 1.65 1.71 1.84 1.95 1.94 1.89 1.93 1.93 1.96 2.01
0.26 0.31 0.40 0.46 0.49 0.56 0.58 0.45 0.44 0.42 0.38 0.42 0.66 0.80 0.67 0.68 0.74 0.77 0.83 0.97 0.96 0.92 0.98 0.96 0.88 0.88 0.78 0.68 0.70 0.74 0.82 1.01 1.23 1.39 1.49 1.62 1.77 1.85 1.85 1.78 1.84 1.94 1.97 1.95
0.32 0.40 0.45 0.49 0.66 0.91 0.68 0.42 0.38 0.39 0.42 0.41 0.52 0.59 0.58 0.63 0.64 0.71 0.84 0.86 0.83 0.74 0.77 0.91 0.98 0.98 0.94 0.84 0.87 0.91 0.96 1.09 1.26 1.42 1.51 1.58 1.69 1.73 1.75 1.72 1.69 1.77 1.81 1.81
0.30 0.45 0.54 0.60 0.73 0.77 0.65 0.52 0.51 0.52 0.56 0.41 0.46 0.53 0.59 0.69 0.73 0.83 0.75 0.72 0.77 0.72 0.80 0.85 0.91 0.97 1.10 1.13 1.10 1.15 1.25 1.34 1.33 1.39 1.51 1.61 1.71 1.75 1.76 1.79 1.76 1.80 1.81 1.76
0.34 0.44 0.59 0.62 0.87 0.97 0.80 0.60 0.62 0.70 1.00 0.68 0.60 0.68 0.75 0.76 1.00 1.08 0.77 0.78 0.92 0.79 0.76 0.84 0.86 0.87 1.05 1.17 1.20 1.24 1.30 1.37 1.34 1.39 1.50 1.62 1.73 1.88 1.86 1.93 1.96 1.92 1.82 1.75
0.64 0.68 0.68 0.68 0.91 1.02 0.72 0.57 0.69 1.23 1.37 0.86 0.78 0.81 0.87 0.93 0.96 0.90 0.77 0.88 1.03 0.89 0.80 0.73 0.79 1.00 1.12 1.17 1.25 1.32 1.30 1.35 1.38 1.52 1.60 1.70 1.78 1.85 1.84 1.92 1.98 1.98 1.92 1.92
0.91 0.91 0.86 0.93 1.20 1.28 0.76 0.68 0.99 1.16 0.88 0.83 0.83 0.80 0.84 0.85 0.82 0.76 0.71 0.77 0.87 0.92 0.89 0.91 1.02 1.13 1.17 1.21 1.36 1.49 1.53 1.47 1.57 1.68 1.66 1.74 1.85 1.71 1.71 1.94 2.03 2.05 2.08 2.05
0.98 1.02 1.08 1.15 1.27 1.09 0.95 1.00 1.07 0.93 0.97 0.88 0.79 0.80 0.78 0.79 0.78 0.78 0.75 0.69 0.75 0.89 0.91 0.99 1.10 1.12 1.15 1.21 1.36 1.60 1.63 1.57 1.58 1.67 1.72 1.73 1.78 1.91 1.99 2.05 2.10 2.07 2.04 2.03
1.11 0.97 1.18 1.34 1.31 1.16 1.13 1.12 1.11 1.03 1.02 0.93 0.83 0.86 0.82 0.85 0.93 0.89 0.87 0.88 0.80 0.84 0.88 0.94 1.06 1.08 1.19 1.28 1.43 1.69 1.73 1.69 1.71 1.79 1.87 1.86 1.83 1.89 2.07 2.25 2.25 2.18 2.04 2.08
1.31 1.24 1.41 1.63 1.54 1.33 1.18 1.05 1.00 0.95 0.89 0.85 0.87 0.93 0.94 0.92 1.00 0.99 1.04 1.09 0.99 0.91 0.90 0.99 1.14 1.26 1.29 1.34 1.42 1.58 1.74 1.88 1.96 1.99 1.98 1.99 2.02 2.06 2.13 2.14 2.12 2.11 2.06 2.01
1.31 1.45 1.73 1.87 1.54 1.36 1.31 1.16 1.11 0.94 0.83 0.83 0.87 0.89 0.96 0.96 1.02 1.00 1.06 1.12 1.09 1.10 1.18 1.19 1.22 1.34 1.40 1.43 1.50 1.60 1.81 2.09 2.29 2.26 2.17 2.16 2.15 2.16 2.13 2.14 1.98 1.85 1.78 1.72